Location: Asheville, NC
(35.6000°N, 82.5500°W)
Time: 09:19:07
(UTC-04:00)

STRAND 1 - Pass Details

Date: 13 March 2018
Orbit: 769 x 780 km, 98.5° (Epoch: 24 June)

Event Time Altitude Azimuth Distance (km) Brightness Sun altitude
Rises 20:39:30 0° 19° (NNE) 3,259 ? -13.7°
Reaches altitude 10° 20:41:53 10° 24° (NNE) 2,326 ? -14.2°
Maximum altitude 20:46:52 51° 100° (E) 965 ? -15.2°
Drops below altitude 10° 20:51:48 10° 176° (S) 2,304 ? -16.2°
Sets 20:54:10 0° 181° (S) 3,225 ? -16.6°
